Location: Limerick
(52.6650°N, 8.6230°W)
Time: 19:21:54
(UTC+01:00)

ISS - Pass Details

Date: 22 May 2017
Orbit: 402 x 408 km, 51.6° (Epoch: 29 May)

Event Time Altitude Azimuth Distance (km) Brightness Sun altitude
Exits shadow 01:06:21 36° 123° (ESE) 664 -3.1 -16.8°
Drops below altitude 10° 01:08:47 10° 87° (E) 1,469 -1.0 -16.8°
Sets 01:10:56 0° 80° (E) 2,330 0.1 -16.8°
